| time (UTC) | temp C | wind direction | speed KPH | gust KPH | rain 1hr cm | rain 24hr cm | rain mn cm | humidity % | barometer mb |
| 20260506193058 | 5 | 290 | 9.7 | 20.9 | 0.00 | 0.00 | 0.00 | 51 | 1018.2 |
| 20260506191554 | 5 | 276 | 11.3 | 22.5 | 0.00 | 0.00 | 0.00 | 51 | 1018.2 |
| 20260506190053 | 5 | 300 | 16.1 | 25.7 | 0.00 | 0.00 | 0.00 | 51 | 1018.3 |
| 20260506184553 | 6 | 283 | 8.0 | 20.9 | 0.00 | 0.00 | 0.00 | 51 | 1018.2 |
| 20260506183059 | 5 | 321 | 9.7 | 24.1 | 0.00 | 0.00 | 0.00 | 50 | 1018.2 |
| 20260506181551 | 5 | 250 | 11.3 | 20.9 | 0.00 | 0.00 | 0.00 | 50 | 1018.4 |
| 20260506180052 | 5 | 298 | 12.9 | 22.5 | 0.00 | 0.00 | 0.00 | 49 | 1018.2 |
| 20260506174549 | 5 | 277 | 9.7 | 25.7 | 0.00 | 0.00 | 0.00 | 51 | 1018.3 |
| 20260506173050 | 5 | 323 | 11.3 | 22.5 | 0.00 | 0.00 | 0.00 | 50 | 1018.4 |
| 20260506171554 | 5 | 309 | 9.7 | 22.5 | 0.00 | 0.00 | 0.00 | 51 | 1018.4 |
| 20260506170047 | 5 | 312 | 11.3 | 38.6 | 0.00 | 0.00 | 0.00 | 51 | 1018.7 |
| 20260506164544 | 5 | 317 | 14.5 | 30.6 | 0.00 | 0.00 | 0.00 | 51 | 1018.7 |
| 20260506163043 | 4 | 288 | 11.3 | 22.5 | 0.00 | 0.00 | 0.00 | 52 | 1018.7 |
| 20260506161539 | 4 | 292 | 11.3 | 24.1 | 0.00 | 0.00 | 0.00 | 52 | 1018.8 |
| 20260506160037 | 4 | 304 | 12.9 | 24.1 | 0.00 | 0.00 | 0.00 | 52 | 1018.6 |
| 20260506154537 | 4 | 288 | 11.3 | 25.7 | 0.00 | 0.00 | 0.00 | 52 | 1018.5 |
| 20260506153035 | 4 | 325 | 6.4 | 29.0 | 0.00 | 0.00 | 0.00 | 53 | 1018.5 |
| 20260506151537 | 4 | 293 | 8.0 | 20.9 | 0.00 | 0.00 | 0.00 | 53 | 1018.4 |
| 20260506150033 | 4 | 317 | 6.4 | 20.9 | 0.00 | 0.00 | 0.00 | 55 | 1018.5 |
| 20260506144530 | 3 | 289 | 9.7 | 17.7 | 0.00 | 0.00 | 0.00 | 55 | 1018.6 |
| 20260506143028 | 3 | 243 | 9.7 | 19.3 | 0.00 | 0.00 | 0.00 | 55 | 1018.5 |
| 20260506141528 | 3 | 293 | 6.4 | 20.9 | 0.00 | 0.00 | 0.00 | 55 | 1018.5 |
| 20260506140029 | 3 | 311 | 9.7 | 17.7 | 0.00 | 0.00 | 0.00 | 55 | 1018.4 |
| 20260506134525 | 3 | 268 | 11.3 | 20.9 | 0.00 | 0.00 | 0.00 | 56 | 1018.3 |
| 20260506133040 | 3 | 330 | 8.0 | 20.9 | 0.00 | 0.00 | 0.00 | 58 | 1018.3 |
| 20260506131529 | 3 | 283 | 6.4 | 20.9 | 0.00 | 0.00 | 0.00 | 59 | 1018.1 |
| 20260506130024 | 3 | 306 | 11.3 | 20.9 | 0.00 | 0.00 | 0.00 | 58 | 1017.9 |
| 20260506124520 | 3 | 298 | 12.9 | 20.9 | 0.00 | 0.00 | 0.00 | 58 | 1017.7 |
| 20260506123018 | 3 | 290 | 4.8 | 16.1 | 0.00 | 0.00 | 0.00 | 61 | 1017.6 |
| 20260506121514 | 2 | 315 | 4.8 | 9.7 | 0.00 | 0.00 | 0.00 | 62 | 1017.3 |
| 20260506120018 | 2 | 288 | 6.4 | 14.5 | 0.00 | 0.00 | 0.00 | 64 | 1017.2 |
| 20260506114506 | 1 | 306 | 4.8 | 9.7 | 0.00 | 0.00 | 0.00 | 67 | 1016.8 |
| 20260506113001 | 1 | 293 | 1.6 | 6.4 | 0.00 | 0.00 | 0.00 | 71 | 1016.6 |
| 20260506111607 | 0 | 293 | 1.6 | 4.8 | 0.00 | 0.00 | 0.00 | 72 | 1016.5 |
| 20260506110058 | 0 | 285 | 3.2 | 6.4 | 0.00 | 0.00 | 0.00 | 73 | 1016.7 |
| 20260506104559 | 0 | 277 | 0.0 | 4.8 | 0.00 | 0.00 | 0.00 | 72 | 1016.8 |
| 20260506103100 | 0 | 294 | 0.0 | 3.2 | 0.00 | 0.00 | 0.00 | 70 | 1016.8 |
| 20260506101552 | 0 | 295 | 0.0 | 3.2 | 0.00 | 0.00 | 0.00 | 69 | 1016.4 |
| 20260506100053 | 1 | 295 | 0.0 | 4.8 | 0.00 | 0.00 | 0.00 | 67 | 1016.3 |
| 20260506094548 | 1 | 296 | 1.6 | 6.4 | 0.00 | 0.00 | 0.00 | 67 | 1016.3 |
| 20260506093046 | 1 | 296 | 1.6 | 4.8 | 0.00 | 0.00 | 0.00 | 66 | 1016.2 |
| 20260506091545 | 1 | 295 | 1.6 | 3.2 | 0.00 | 0.00 | 0.00 | 65 | 1016.3 |
| 20260506090043 | 1 | 295 | 3.2 | 6.4 | 0.00 | 0.00 | 0.00 | 65 | 1016.4 |
| 20260506084543 | 1 | 298 | 3.2 | 4.8 | 0.00 | 0.00 | 0.00 | 65 | 1016.1 |
| 20260506083039 | 1 | 300 | 1.6 | 4.8 | 0.00 | 0.00 | 0.00 | 64 | 1015.8 |
| 20260506081537 | 1 | 300 | 1.6 | 6.4 | 0.00 | 0.00 | 0.00 | 62 | 1015.9 |
| 20260506073033 | 2 | 340 | 3.2 | 12.9 | 0.00 | 0.00 | 0.00 | 59 | 1015.5 |
| 20260506071527 | 2 | 326 | 4.8 | 9.7 | 0.00 | 0.00 | 0.00 | 59 | 1015.5 |
| 20260506061519 | 3 | 327 | 6.4 | 14.5 | 0.00 | 0.00 | 0.00 | 55 | 1015.5 |
| 20260506044505 | 4 | 323 | 4.8 | 16.1 | 0.00 | 0.00 | 0.00 | 54 | 1014.9 |
| 20260506043004 | 5 | 331 | 9.7 | 19.3 | 0.00 | 0.00 | 0.00 | 54 | 1014.8 |
| 20260506041505 | 5 | 333 | 6.4 | 12.9 | 0.00 | 0.00 | 0.00 | 54 | 1014.7 |
| 20260506040004 | 5 | 314 | 4.8 | 12.9 | 0.00 | 0.00 | 0.00 | 53 | 1014.8 |
| 20260506034505 | 5 | 321 | 6.4 | 12.9 | 0.00 | 0.00 | 0.00 | 53 | 1014.7 |
| 20260506033002 | 5 | 313 | 6.4 | 20.9 | 0.00 | 0.00 | 0.00 | 51 | 1014.6 |
| 20260506031600 | 6 | 338 | 8.0 | 16.1 | 0.00 | 0.00 | 0.00 | 50 | 1014.5 |
| 20260506030100 | 6 | 346 | 4.8 | 17.7 | 0.00 | 0.00 | 0.00 | 51 | 1014.3 |
| 20260506024600 | 6 | 317 | 4.8 | 24.1 | 0.00 | 0.00 | 0.00 | 49 | 1014.1 |
| 20260506023100 | 7 | 331 | 12.9 | 24.1 | 0.00 | 0.00 | 0.00 | 46 | 1013.7 |
| 20260506021606 | 7 | 315 | 9.7 | 17.7 | 0.00 | 0.00 | 0.00 | 46 | 1013.6 |
| 20260506020052 | 7 | 314 | 9.7 | 22.5 | 0.00 | 0.00 | 0.00 | 45 | 1013.4 |
| 20260506014550 | 7 | 355 | 8.0 | 20.9 | 0.00 | 0.00 | 0.00 | 44 | 1013.1 |
| 20260506013048 | 7 | 319 | 11.3 | 29.0 | 0.00 | 0.00 | 0.00 | 43 | 1012.9 |
| 20260506011546 | 8 | 325 | 16.1 | 29.0 | 0.00 | 0.00 | 0.00 | 42 | 1012.7 |
| 20260506010055 | 8 | 323 | 16.1 | 29.0 | 0.00 | 0.00 | 0.00 | 42 | 1012.6 |
| 20260506004549 | 9 | 327 | 11.3 | 20.9 | 0.00 | 0.00 | 0.00 | 40 | 1012.5 |
| 20260506003043 | 9 | 5 | 12.9 | 25.7 | 0.00 | 0.00 | 0.00 | 40 | 1012.3 |
| 20260506001546 | 9 | 320 | 14.5 | 30.6 | 0.00 | 0.00 | 0.00 | 39 | 1012.2 |
| 20260506000042 | 9 | 315 | 8.0 | 29.0 | 0.00 | 0.00 | 0.00 | 39 | 1012.1 |
| 20260505234601 | 9 | 340 | 4.8 | 27.4 | 0.00 | 0.00 | 0.00 | 39 | 1011.9 |
| 20260505233043 | 10 | 259 | 11.3 | 25.7 | 0.00 | 0.00 | 0.00 | 37 | 1011.8 |
| 20260505231541 | 10 | 298 | 9.7 | 25.7 | 0.00 | 0.00 | 0.00 | 38 | 1011.9 |
| 20260505230039 | 11 | 257 | 8.0 | 27.4 | 0.00 | 0.00 | 0.00 | 37 | 1011.8 |
| 20260505224539 | 10 | 265 | 12.9 | 30.6 | 0.00 | 0.00 | 0.00 | 39 | 1011.9 |
| 20260505223040 | 10 | 338 | 8.0 | 22.5 | 0.00 | 0.00 | 0.00 | 40 | 1011.9 |
| 20260505221539 | 10 | 281 | 6.4 | 20.9 | 0.00 | 0.00 | 0.00 | 40 | 1011.8 |
| 20260505220041 | 10 | 298 | 12.9 | 32.2 | 0.00 | 0.00 | 0.00 | 40 | 1011.9 |
| 20260505214559 | 9 | 351 | 11.3 | 27.4 | 0.00 | 0.00 | 0.00 | 39 | 1011.9 |
| 20260505213037 | 9 | 276 | 16.1 | 33.8 | 0.00 | 0.00 | 0.00 | 38 | 1012.0 |
| 20260505211535 | 9 | 346 | 9.7 | 27.4 | 0.00 | 0.00 | 0.00 | 39 | 1012.0 |
| 20260505210034 | 10 | 278 | 12.9 | 27.4 | 0.00 | 0.00 | 0.00 | 39 | 1012.1 |
| 20260505204537 | 10 | 280 | 16.1 | 27.4 | 0.00 | 0.00 | 0.00 | 38 | 1012.1 |
| 20260505203038 | 9 | 226 | 12.9 | 27.4 | 0.00 | 0.00 | 0.00 | 38 | 1012.0 |
| 20260505201537 | 9 | 279 | 9.7 | 25.7 | 0.00 | 0.00 | 0.00 | 39 | 1012.2 |
| 20260505200032 | 9 | 252 | 9.7 | 20.9 | 0.00 | 0.00 | 0.00 | 39 | 1012.1 |
| 20260505194540 | 9 | 313 | 16.1 | 30.6 | 0.00 | 0.00 | 0.00 | 39 | 1012.2 |